Skip Page Navigation
NASA JPL Caltech
NASA Logo - Jet Propulsion Laboratory + View the NASA Portal
+ Center for Near-Earth Object Studies
JPL Home Earth Solar System Stars & Galaxies Technology
JPL Solar System Dynamics
BODIES ORBITS EPHEMERIDES TOOLS PHYSICAL DATA DISCOVERY FAQ SITE MAP
JPL Small-Body Database Browser
Search: [ help ]  
175382 (2006 JM15)
Classification: Main-belt Asteroid          SPK-ID: 2175382
Ephemeris | Orbit Diagram | Orbital Elements | Mission Design | Physical Parameters | Discovery Circumstances ]

[ show orbit diagram ]
Orbital Elements at Epoch 2459200.5 (2020-Dec-17.0) TDB
Reference: JPL 10 (heliocentric ecliptic J2000)
 Element Value Uncertainty (1-sigma)   Units 
e .1851924527404721 4.669e-08  
a 2.439074264213514 1.403e-08 au
q 1.987376118807651 1.1646e-07 au
i 3.669935722716305 5.5444e-06 deg
node 62.10050877140075 8.0266e-05 deg
peri 261.2997255389824 8.1529e-05 deg
M 214.4977265152864 1.426e-05 deg
tp 2459762.845521832342
(2022-Jul-02.34552183)
5.6407e-05 TDB
period 1391.3486230228
3.81
1.2005e-05
3.287e-08
d
yr
n .2587417661131366 2.2325e-09 deg/d
Q 2.890772409619377 1.6628e-08 au
  Orbit Determination Parameters
   # obs. used (total)      196  
   data-arc span      7885 days (21.59 yr)  
   first obs. used      1999-08-13  
   last obs. used      2021-03-15  
   planetary ephem.      DE441  
   SB-pert. ephem.      SB441-N16  
   condition code      0  
   norm. resid. RMS      .6282  
   source      ORB  
   producer      Otto Matic  
   solution date      2021-Apr-13 21:05:10  

Additional Information
 Earth MOID = .977196 au 
 Jupiter MOID = 2.43625 au 
 T_jup = 3.476 
[ show covariance matrix ]

Ephemeris | Orbit Diagram | Orbital Elements | Mission Design | Physical Parameters | Discovery Circumstances ]

Physical Parameter Table
Parameter Symbol Value Units Sigma Reference Notes
absolute magnitude H 17.0   n/a MPO454205  
rotation period rot_per 395.237 h n/a LCDB (Rev. 2020-October); Warner et al., 2009 Result based on less than full coverage, so that the period may be wrong by 30 percent or so.
Published Reference List:
[McNeill, A.; Mommert, M.; Trilling, D.E.; Llama, J.; Skiff, B. (2019) Ap. J. Suppl. Series 245, id.29.]

175382 (2006 JM15)          Discovered 2006-May-02 by Mt. Lemmon Survey at Mount Lemmon
Reference: 20080122/Numbers.arcLast Updated: 2008-01-28
Ephemeris | Orbit Diagram | Orbital Elements | Mission Design | Physical Parameters | Discovery Circumstances ]
ABOUT SSD CREDITS/AWARDS PRIVACY/COPYRIGHT GLOSSARY LINKS
FirstGov 2021-Apr-23 06:22 UT
(server date/time)  
NASA Home Page
Site Manager:   Ryan S. Park
Webmaster  Alan B. Chamberlin